Change the Weather History Date:

Friday, July 20, 2012

  Actual Average Record
Temperature  
Mean Temperature 77 °F 72 °F  
Max Temperature 95 °F 90 °F 102 °F (2005)
Min Temperature 58 °F 54 °F 46 °F (2000)
Degree Days  
Heating Degree Days 0 0  
Month to date heating degree days 0 0  
Since 1 June heating degree days 11 75  
Since 1 July heating degree days 0 0  
Cooling Degree Days 12 7  
Month to date cooling degree days 178 121  
Year to date cooling degree days 343 184  
Since 1 June cooling degree days 334 179  
Growing Degree Days 26 (Base 50)    
Moisture  
Dew Point 47 °F    
Average Humidity 48    
Maximum Humidity 80    
Minimum Humidity 16    
Precipitation  
Precipitation 0.00 in 0.05 in 0.09 in (2008)
Month to date precipitation 1.00 0.51  
Year to date precipitation 3.49 6.13  
Sea Level Pressure  
Sea Level Pressure 29.99 in    
Wind  
Wind Speed 5 mph (WSW)    
Max Wind Speed 18 mph    
Max Gust Speed 22 mph    
Visibility 10 miles    
Events      
T = Trace of Precipitation, MM = Missing Value Source: NWS Daily Summary

Daily Weather History Graph

Daily Weather History Graph

Search for Another Location

Airport or City:

Trip Planner

Search our weather history database for the weather conditions in past years. The results will help you decide how hot, cold, wet, or windy it might be!

Date:

Astronomy

Jul. 20, 2012 Rise Set
Actual Time 6:09 AM MDT 8:31 PM MDT
Civil Twilight 5:40 AM MDT 9:01 PM MDT
Nautical Twilight 5:03 AM MDT 9:37 PM MDT
Astronomical Twilight 4:23 AM MDT 10:17 PM MDT
Moon 7:47 AM MDT (7/20) 9:17 PM MDT (7/20)
Length of Visible Light 15h 21m
Length of Day
14h 21m
Waxing Crescent, 3% of the Moon is Illuminated
Jul 20
Waxing Crescent
Jul 26
First Quarter
Aug 1
Full
Aug 9
Last Quarter
Aug 17
New

Hourly Weather History & Observations

Time (MDT) Temp. Dew Point Humidity Pressure Visibility Wind Dir Wind Speed Gust Speed Precip Events Conditions
12:53 AM 66.0 °F 57.9 °F 75% 30.01 in 10.0 mi NW 4.6 mph - N/A   Clear
1:53 AM 63.0 °F 55.9 °F 78% 30.02 in 10.0 mi Calm Calm - N/A   Clear
2:53 AM 59.0 °F 54.0 °F 83% 30.03 in 10.0 mi Calm Calm - N/A   Clear
3:53 AM 60.1 °F 54.0 °F 80% 30.04 in 10.0 mi Variable 3.5 mph - N/A   Clear
4:53 AM 62.1 °F 53.1 °F 72% 30.01 in 10.0 mi NNW 5.8 mph - N/A   Clear
5:53 AM 61.0 °F 52.0 °F 72% 30.04 in 10.0 mi Calm Calm - N/A   Clear
6:53 AM 66.0 °F 51.1 °F 59% 30.06 in 10.0 mi Calm Calm - N/A   Clear
7:53 AM 71.1 °F 52.0 °F 51% 30.06 in 10.0 mi Calm Calm - N/A   Clear
8:53 AM 78.1 °F 51.1 °F 39% 30.05 in 10.0 mi NW 5.8 mph - N/A   Clear
9:53 AM 81.0 °F 48.0 °F 31% 30.06 in 10.0 mi WSW 3.5 mph - N/A   Clear
10:53 AM 82.9 °F 46.0 °F 27% 30.07 in 10.0 mi West 3.5 mph - N/A   Clear
12:53 PM 90.0 °F 46.0 °F 22% 30.01 in 10.0 mi South 10.4 mph - N/A   Mostly Cloudy
1:53 PM 91.0 °F 46.0 °F 21% 30.01 in 10.0 mi SSE 5.8 mph - N/A   Clear
2:53 PM 91.9 °F 44.1 °F 19% 29.99 in 10.0 mi WSW 9.2 mph - N/A   Clear
3:53 PM 93.9 °F 42.1 °F 17% 29.95 in 10.0 mi SE 8.1 mph 16.1 mph N/A   Partly Cloudy
4:53 PM 91.9 °F 41.0 °F 17% 29.92 in 10.0 mi SW 11.5 mph - N/A   Clear
5:53 PM 91.9 °F 39.0 °F 16% 29.90 in 10.0 mi SW 6.9 mph - N/A   Clear
6:53 PM 91.0 °F 39.9 °F 17% 29.88 in 10.0 mi WSW 5.8 mph - N/A   Clear
7:53 PM 88.0 °F 39.0 °F 18% 29.89 in 10.0 mi SW 11.5 mph - N/A   Scattered Clouds
8:53 PM 79.0 °F 42.1 °F 27% 29.91 in 10.0 mi WNW 4.6 mph - N/A   Partly Cloudy
9:53 PM 80.1 °F 36.0 °F 20% 29.93 in 10.0 mi NW 3.5 mph - N/A   Clear
10:53 PM 72.0 °F 46.0 °F 40% 29.96 in 10.0 mi ENE 5.8 mph - N/A   Clear
11:53 PM 69.1 °F 46.0 °F 44% 29.97 in 10.0 mi NE 4.6 mph - N/A   Clear